GMS-T (47346 NORAD) Tracking and Keplerian Element Data
This shows tracking and keplerian element data for the satellite.
Feedback or suggestion? Click here.
Element | Value |
Catalog | 47346 |
Name | GMS-T |
Epoch Orbit | 1110 |
Epoch Day | 104.83462528 |
Epoch Year | 2021 |
RAAN | 229.8244 |
Inclination | 90.0076 |
Eccentricity | 0.0003772 |
Argument of Perigee | 131.222 |
Mean Anonmoly | 228.9237 |
Mean Motion | 13.16599188 |
Decay Rate | -2.9E-07 |
L1 | 1 47346U 21004A 21104.83462528 -.00000029 00000-0 -97044-4 0 9998 |
L2 | 2 47346 90.0076 229.8244 0003772 131.2220 228.9237 13.16599188 11106 |
Live tracking and technical data element details for GMS-T (NORAD 47346). GMS-T can be tracked NOW for your location showing map with azimuth and elevation plus other details from your city location.
Track the satellite on the map from your city or location and see movement details for azimuth, elevation, latitude, longitude, range, height, and movement on the map or in text.
IsCatalogInMostPopularTable: catalog: 47346, numindb: 22
Update: records affected: 1
GetName: 47346 GMS-T
Hit Count: updated at: Fri, 16 Apr 2021 10:24:56 GMT